Wind_Speed
36 36 37 38 38 38 37 38 39 39 39 39 39 38 38 37 37 37 37 38 38 39 39 39 39 39 38 38 38 38 38 38 38 38 38 37 36 36 36 36 36 36 35
37 36 36 37 38 39 38 39 39 40 40 40 40 40 39 38 39 40 40 39 39 40 40 41 41 41 41 41 40 40 39 39 39 39 39 39 38 37 37 38 37 37 37
37 37 36 36 36 37 38 39 40 40 41 41 41 41 41 41 41 41 41 40 41 41 42 42 42 42 42 42 42 42 41 40 41 40 40 40 39 38 38 38 38 38 38
35 36 36 36 36 36 38 39 40 41 41 42 42 42 42 42 42 42 42 42 41 41 43 43 44 44 44 43 43 42 41 41 41 41 41 41 41 40 39 39 39 40 40
34 36 36 36 36 36 37 38 39 41 42 43 43 43 43 43 43 43 44 43 43 42 43 44 44 44 44 44 43 42 41 41 42 42 42 42 41 41 41 40 40 40 40
34 35 36 36 36 37 38 38 39 41 42 44 44 45 45 45 45 45 45 45 45 44 43 45 46 45 44 44 43 43 42 42 42 42 42 42 42 42 42 41 40 40 40
33 35 36 37 37 38 38 39 39 40 42 44 45 46 46 46 47 47 47 47 46 46 46 45 46 46 45 45 44 45 44 44 43 43 43 43 43 43 42 42 41 42 42
34 35 36 37 37 38 39 40 40 40 42 43 46 47 48 48 48 48 48 48 47 47 46 46 46 46 46 46 46 47 46 45 44 44 44 44 43 44 43 43 43 43 43
34 36 37 38 38 39 40 41 42 42 43 43 45 47 49 49 49 50 49 49 48 47 47 46 46 47 47 47 47 47 47 46 46 45 45 44 44 44 44 44 44 45 45
34 35 37 38 39 40 40 42 43 43 44 45 45 46 48 51 51 50 49 49 48 47 46 46 47 47 48 48 49 48 48 48 48 47 47 46 46 46 45 45 45 46 46
33 34 35 36 39 40 41 42 43 44 45 46 47 47 47 49 50 51 50 50 49 48 47 47 47 47 48 49 50 49 49 49 49 49 48 47 47 47 47 47 46 46 46
31 32 34 35 37 39 41 43 44 46 47 47 47 48 48 48 48 49 50 50 48 48 48 48 48 48 49 49 49 49 49 49 49 48 48 48 48 48 48 47 46 47 47
31 32 34 35 37 39 41 42 44 46 47 47 46 47 47 46 46 46 47 48 48 48 48 48 49 48 47 47 47 48 48 48 48 47 47 47 47 47 48 48 48 48 47
31 33 36 37 38 38 39 41 42 43 43 44 44 45 45 45 46 45 45 45 46 47 47 47 47 47 46 46 46 45 46 46 46 46 46 46 47 47 47 48 48 48 47
32 33 35 37 38 39 40 41 40 41 41 42 43 43 44 44 44 44 45 45 45 46 47 47 46 45 44 44 44 44 45 46 46 46 45 45 46 46 47 47 47 47 46
32 33 35 36 36 37 38 39 39 39 40 41 42 42 43 44 43 43 43 44 45 45 46 46 44 42 42 42 42 42 43 44 44 44 44 45 45 46 46 46 45 45 46
32 33 34 35 35 36 36 36 37 38 39 40 41 41 42 42 43 43 42 43 44 44 44 44 44 43 42 42 42 41 42 42 43 43 43 44 44 44 43 43 44 44 44
32 32 33 34 35 35 35 36 37 38 38 38 39 40 40 41 42 42 43 42 42 43 42 43 43 43 42 42 42 41 41 40 41 41 41 41 40 40 40 41 41 41 41
33 33 33 34 34 34 35 36 36 37 37 37 37 37 37 39 39 40 42 42 42 41 41 41 41 42 42 41 41 41 40 40 40 39 39 39 39 39 40 40 41 41 41
33 32 33 33 33 34 35 35 35 34 34 34 33 34 35 36 37 38 39 39 40 39 39 39 39 39 40 40 40 40 40 39 39 38 37 37 38 39 40 41 41 41 41
32 31 32 32 33 33 34 33 33 33 32 32 32 33 34 35 36 36 36 37 36 36 37 37 36 37 37 38 38 39 39 39 38 38 38 38 38 38 39 40 41 41 41
31 32 32 33 33 33 34 34 34 34 33 33 32 32 33 34 35 35 34 34 35 35 35 35 35 35 36 36 36 36 37 37 37 37 37 37 38 38 38 39 39 40 40
31 31 31 31 32 33 33 34 34 33 33 32 32 33 33 34 34 34 34 33 34 34 34 35 36 35 35 35 35 35 36 36 36 36 35 36 36 37 38 39 39 39 38
30 30 30 30 30 31 31 31 31 31 31 31 31 31 32 32 32 32 32 33 33 33 34 34 35 36 35 34 33 33 34 34 34 34 35 35 35 36 38 38 37 37 37
29 29 29 29 29 31 30 30 30 29 29 29 29 29 29 29 30 30 30 31 32 33 34 34 34 34 33 33 33 33 33 33 33 34 34 35 35 35 36 37 37 37 37
29 29 29 29 30 30 30 29 28 28 28 28 28 28 28 27 27 28 28 29 30 30 31 31 31 31 32 32 33 34 33 33 33 35 35 35 35 34 34 35 35 36 37
Wind_Direction
243 243 244 244 245 245 246 247 248 250 252 253 254 256 258 260 260 260 259 258 259 260 262 262 262 263 265 266 267 267 268 268 268 268 269 268 269 270 271 272 273 274 276
242 243 244 245 245 246 247 248 250 251 253 255 255 257 257 259 260 259 258 259 260 261 262 263 263 263 264 265 266 267 268 268 268 268 269 268 268 269 270 271 272 273 275
241 243 246 247 247 248 248 249 250 252 254 255 255 257 257 259 260 261 261 260 261 262 262 263 264 264 264 265 266 267 267 267 267 267 268 269 269 269 271 271 271 273 274
244 246 246 247 249 251 251 251 252 253 254 255 256 257 258 260 261 262 262 261 263 264 265 265 264 264 264 264 265 265 266 266 266 267 268 270 271 271 269 269 271 273 274
245 246 247 249 251 252 253 253 254 254 255 256 257 258 259 260 261 262 263 263 265 266 266 265 265 264 264 263 264 265 266 266 267 267 268 269 270 272 271 270 272 273 274
249 249 249 251 253 254 255 257 257 256 257 257 258 259 260 260 261 263 264 264 265 265 266 264 264 263 263 263 263 264 266 266 267 267 267 268 269 271 272 273 272 273 274
251 252 253 255 256 257 258 259 259 259 258 259 260 260 261 261 261 263 263 262 263 264 264 264 264 262 262 261 261 262 265 267 266 266 266 266 269 271 273 273 273 273 274
253 256 258 259 259 260 261 261 261 261 262 262 262 261 261 260 260 261 261 261 262 262 263 264 263 262 262 263 263 263 264 265 265 265 266 267 269 271 272 274 274 275 275
255 257 259 261 262 262 263 263 264 264 264 265 265 263 262 261 260 261 261 261 261 262 262 263 263 262 262 263 264 264 263 264 265 265 266 267 269 271 273 274 275 275 276
256 258 259 261 263 264 265 265 265 266 265 266 266 265 264 262 261 261 260 260 260 260 261 262 263 262 263 263 262 263 263 264 264 265 266 267 268 271 274 275 276 276 277
259 261 263 265 265 265 266 267 266 267 267 267 267 266 264 263 261 261 260 259 258 259 260 262 263 263 264 264 264 264 263 263 264 265 266 267 268 270 273 274 275 276 277
264 264 266 268 267 267 268 268 269 269 269 268 268 266 264 263 263 262 259 258 258 259 260 262 263 264 265 265 264 264 264 263 265 266 267 267 268 270 272 274 274 275 276
270 268 269 270 271 272 271 271 271 271 270 268 268 266 264 263 262 261 260 259 259 260 262 262 263 264 265 265 264 264 264 264 265 266 267 267 268 270 272 273 274 275 276
274 273 272 274 275 275 275 276 275 274 272 269 267 267 264 262 261 260 260 260 260 261 261 262 263 263 264 265 265 264 264 264 266 266 266 267 268 270 272 274 274 275 276
277 277 276 276 276 276 278 278 276 275 273 270 268 267 264 262 261 261 260 260 260 261 262 262 263 261 262 264 264 264 265 265 266 266 267 268 269 270 272 274 274 275 276
280 279 279 279 279 279 279 278 277 276 274 271 269 267 264 262 261 260 259 260 260 261 261 261 260 260 260 262 263 264 265 265 266 267 268 269 269 271 273 274 275 276 277
282 282 281 281 282 282 281 279 278 278 274 272 270 267 264 261 261 260 260 260 260 261 262 259 259 259 260 261 263 264 266 265 266 266 267 269 270 272 272 274 274 276 277
284 283 283 283 283 283 282 282 281 279 276 274 272 268 265 263 262 261 261 261 261 259 260 258 257 258 258 261 263 264 265 265 265 266 268 269 271 271 272 274 275 276 278
285 285 284 285 284 284 283 282 282 280 278 276 273 269 266 264 263 263 263 262 261 259 258 257 256 257 257 260 262 264 264 264 265 267 267 268 270 271 272 273 275 278 279
285 286 286 286 285 285 284 283 282 282 280 277 275 270 267 265 265 265 263 262 260 258 257 256 257 257 257 259 261 263 263 263 265 266 267 268 269 271 273 274 276 278 279
285 286 286 286 286 286 285 284 283 281 279 276 273 270 271 268 267 266 264 262 261 258 257 257 258 259 259 260 261 262 263 265 267 269 270 269 270 271 273 275 276 277 279
285 285 286 287 287 286 285 284 282 280 278 275 274 274 272 268 266 266 265 263 261 260 259 258 260 261 262 262 261 262 263 265 267 269 271 271 270 271 273 275 277 279 279
286 286 288 289 289 289 287 285 284 280 278 276 276 275 274 270 268 267 265 264 263 261 260 260 261 263 264 265 264 265 265 267 267 268 270 270 270 272 274 276 277 279 281
290 288 289 289 291 292 292 289 286 282 280 277 278 276 273 270 268 266 265 264 263 263 262 261 261 262 263 265 266 266 267 267 266 267 268 269 271 273 276 276 277 279 281
293 292 291 290 292 295 294 292 287 283 281 280 279 279 275 270 267 267 266 265 264 263 263 262 260 261 262 263 265 265 267 269 269 268 269 270 272 274 275 275 275 277 279
293 293 291 292 293 296 297 294 289 284 283 282 280 278 274 271 269 268 267 266 264 262 261 260 260 261 261 263 265 266 268 271 271 272 272 273 274 275 276 276 277 277 278
Height
5735 5738 5741 5744 5746 5749 5751 5754 5756 5759 5761 5763 5765 5767 5768 5769 5770 5770 5772 5773 5775 5775 5777 5778 5779 5781 5782 5782 5783 5783 5784 5784 5784 5785 5786 5787 5787 5787 5787 5787 5787 5787 5787
5726 5730 5732 5735 5737 5740 5743 5745 5747 5749 5751 5753 5755 5757 5759 5760 5761 5761 5762 5764 5765 5766 5767 5769 5770 5771 5772 5772 5773 5773 5774 5774 5774 5775 5776 5777 5778 5778 5778 5778 5778 5777 5777
5718 5722 5725 5727 5729 5731 5733 5736 5738 5740 5741 5743 5745 5747 5749 5750 5752 5752 5753 5754 5755 5756 5757 5758 5759 5760 5761 5762 5762 5763 5763 5764 5764 5764 5765 5766 5767 5768 5769 5768 5768 5768 5768
5711 5713 5716 5718 5721 5722 5724 5726 5728 5730 5731 5733 5735 5737 5739 5741 5742 5742 5743 5743 5744 5745 5747 5747 5748 5749 5750 5751 5751 5752 5753 5753 5754 5754 5755 5755 5756 5757 5759 5759 5758 5758 5758
5703 5705 5707 5710 5712 5713 5715 5716 5718 5719 5721 5723 5724 5726 5727 5729 5730 5731 5732 5732 5733 5734 5735 5736 5737 5737 5738 5740 5741 5741 5742 5743 5743 5744 5745 5745 5746 5746 5747 5748 5748 5748 5748
5695 5696 5699 5701 5702 5704 5705 5706 5707 5709 5710 5711 5712 5714 5715 5717 5718 5720 5720 5721 5722 5723 5723 5724 5725 5726 5727 5729 5730 5731 5731 5732 5733 5734 5734 5735 5736 5736 5736 5737 5738 5738 5737
5687 5689 5691 5692 5693 5695 5696 5696 5697 5698 5698 5699 5700 5702 5703 5704 5706 5707 5708 5709 5710 5711 5712 5712 5713 5714 5716 5717 5719 5720 5721 5721 5722 5723 5724 5724 5725 5725 5726 5726 5726 5727 5727
5679 5681 5682 5684 5685 5685 5686 5686 5686 5686 5687 5687 5688 5689 5690 5691 5693 5694 5695 5696 5698 5699 5700 5700 5701 5703 5704 5705 5706 5708 5709 5710 5711 5712 5713 5713 5714 5714 5714 5715 5715 5715 5716
5671 5673 5674 5675 5675 5675 5675 5675 5675 5675 5675 5675 5675 5676 5677 5678 5679 5680 5681 5683 5685 5687 5688 5688 5689 5691 5692 5693 5694 5695 5697 5698 5699 5700 5701 5702 5703 5703 5703 5703 5703 5703 5703
5663 5664 5665 5665 5665 5665 5665 5664 5664 5664 5664 5663 5663 5663 5664 5665 5666 5667 5669 5670 5672 5674 5675 5676 5677 5678 5679 5680 5682 5683 5684 5686 5687 5688 5689 5690 5691 5691 5691 5691 5691 5690 5690
5654 5655 5655 5655 5655 5654 5654 5653 5652 5652 5651 5651 5650 5650 5651 5651 5652 5654 5655 5657 5659 5661 5663 5664 5665 5665 5666 5667 5669 5670 5671 5673 5674 5676 5677 5678 5679 5679 5679 5679 5678 5678 5678
5645 5646 5646 5645 5644 5643 5642 5641 5640 5639 5639 5638 5637 5637 5638 5638 5639 5641 5643 5644 5646 5648 5650 5651 5652 5653 5654 5655 5656 5657 5658 5660 5662 5664 5665 5666 5667 5667 5667 5666 5666 5666 5665
5637 5636 5636 5634 5633 5632 5631 5629 5627 5626 5625 5624 5624 5624 5624 5625 5627 5628 5630 5632 5634 5636 5637 5638 5640 5640 5641 5642 5643 5645 5646 5648 5649 5651 5652 5653 5654 5654 5654 5654 5654 5653 5653
5629 5627 5626 5625 5623 5621 5619 5617 5614 5612 5610 5610 5610 5610 5611 5613 5615 5616 5618 5620 5622 5623 5625 5626 5627 5628 5629 5630 5632 5633 5634 5636 5637 5639 5640 5640 5641 5641 5641 5641 5641 5641 5641
5620 5618 5617 5615 5613 5610 5608 5605 5602 5600 5598 5598 5598 5598 5599 5600 5602 5604 5606 5608 5609 5611 5612 5613 5615 5616 5618 5619 5620 5622 5623 5624 5626 5627 5628 5629 5629 5629 5629 5629 5629 5628 5628
5612 5610 5607 5605 5602 5600 5597 5594 5591 5589 5587 5586 5586 5586 5587 5588 5590 5592 5594 5596 5597 5599 5600 5601 5603 5605 5607 5608 5610 5611 5612 5613 5614 5615 5616 5617 5617 5617 5617 5617 5616 5616 5616
5603 5601 5598 5596 5593 5590 5586 5583 5581 5578 5577 5576 5575 5575 5576 5577 5579 5580 5582 5583 5585 5587 5588 5590 5592 5594 5596 5598 5599 5600 5601 5602 5603 5604 5605 5605 5605 5605 5605 5605 5605 5604 5603
5594 5592 5589 5586 5584 5581 5577 5574 5571 5568 5566 5565 5565 5564 5565 5566 5568 5569 5570 5572 5573 5575 5577 5579 5581 5583 5585 5587 5588 5589 5590 5591 5592 5593 5593 5594 5594 5594 5594 5594 5593 5593 5592
5586 5583 5580 5578 5575 5572 5569 5565 5562 5559 5557 5556 5555 5555 5555 5557 5558 5559 5560 5560 5562 5564 5566 5568 5570 5572 5574 5576 5577 5578 5579 5580 5582 5582 5583 5583 5583 5583 5583 5583 5583 5582 5581
5577 5574 5572 5569 5566 5563 5560 5557 5554 5551 5549 5548 5547 5547 5547 5548 5548 5549 5549 5550 5551 5553 5555 5557 5559 5561 5563 5565 5566 5567 5568 5570 5571 5572 5572 5572 5572 5572 5572 5572 5572 5571 5570
5568 5566 5563 5560 5558 5555 5552 5549 5546 5544 5542 5541 5540 5539 5539 5538 5539 5539 5540 5541 5542 5544 5546 5548 5549 5551 5553 5554 5555 5557 5558 5559 5560 5561 5562 5562 5562 5562 5562 5562 5561 5560 5559
5560 5557 5555 5552 5549 5546 5544 5541 5538 5536 5534 5533 5532 5531 5530 5529 5529 5529 5530 5531 5533 5535 5536 5538 5540 5541 5543 5544 5546 5547 5548 5549 5550 5551 5552 5552 5552 5552 5552 5551 5550 5549 5548
5551 5549 5547 5544 5541 5538 5535 5532 5530 5527 5525 5524 5523 5522 5521 5521 5521 5521 5522 5523 5524 5526 5528 5530 5531 5533 5534 5535 5536 5537 5538 5539 5540 5541 5542 5542 5541 5541 5541 5541 5540 5539 5538
5544 5541 5538 5536 5533 5530 5527 5524 5521 5519 5517 5516 5514 5513 5512 5512 5512 5513 5514 5515 5516 5517 5519 5521 5523 5524 5526 5527 5528 5529 5529 5530 5531 5531 5531 5532 5531 5531 5531 5531 5530 5529 5528
5536 5533 5530 5528 5525 5522 5518 5515 5513 5511 5509 5508 5506 5505 5504 5504 5504 5504 5505 5506 5507 5508 5510 5512 5513 5515 5516 5517 5518 5519 5520 5521 5521 5522 5522 5522 5522 5522 5521 5521 5520 5519 5518
5528 5525 5522 5520 5517 5514 5511 5507 5505 5503 5501 5500 5499 5498 5497 5496 5496 5496 5497 5497 5499 5500 5501 5503 5504 5506 5507 5508 5509 5509 5510 5511 5512 5512 5512 5512 5512 5512 5511 5511 5510 5509 5508